Time,TemperatureF,DewpointF,PressureIn,WindDirection,WindDirectionDegrees,WindSpeedMPH,WindSpeedGustMPH,Humidity,HourlyPrecipIn,Conditions,Clouds,dailyrainin,SoftwareType,DateUTC
2013-05-19 00:02:00,73.0,68.0,29.80,NNW,348,0.0,2.0,85,0.00,,,0.00,,2013-05-19 05:02:00,
2013-05-19 00:12:00,73.0,68.0,29.80,NNW,348,0.0,2.0,85,0.00,,,0.00,,2013-05-19 05:12:00,
2013-05-19 00:22:00,73.0,70.0,29.79,SW,232,0.0,2.0,89,0.00,,,0.00,,2013-05-19 05:22:00,
2013-05-19 00:32:00,73.0,69.0,29.78,SW,232,0.0,1.0,88,0.00,,,0.00,,2013-05-19 05:32:00,
2013-05-19 00:42:00,72.0,69.0,29.78,SE,140,0.0,1.0,89,0.00,,,0.00,,2013-05-19 05:42:00,
2013-05-19 00:52:00,72.0,69.0,29.78,SE,140,0.0,1.0,89,0.00,,,0.00,,2013-05-19 05:52:00,
2013-05-19 01:02:00,71.0,68.0,29.78,SE,140,0.0,0.0,91,0.00,,,0.00,,2013-05-19 06:02:00,
2013-05-19 01:12:00,71.0,68.0,29.78,SE,140,0.0,0.0,91,0.00,,,0.00,,2013-05-19 06:12:00,
2013-05-19 01:21:00,70.0,68.0,29.79,SE,144,0.0,0.0,93,0.00,,,0.00,,2013-05-19 06:21:00,
2013-05-19 01:32:00,70.0,68.0,29.79,ENE,60,0.0,2.0,94,0.00,,,0.00,,2013-05-19 06:32:00,
2013-05-19 01:42:00,70.0,68.0,29.79,ENE,60,0.0,2.0,94,0.00,,,0.00,,2013-05-19 06:42:00,
2013-05-19 01:52:00,70.0,68.0,29.79,ENE,61,0.0,0.0,94,0.00,,,0.00,,2013-05-19 06:52:00,
2013-05-19 02:01:00,70.0,68.0,29.79,ENE,61,0.0,0.0,94,0.00,,,0.00,,2013-05-19 07:01:00,
2013-05-19 02:11:00,70.0,68.0,29.79,ENE,61,0.0,0.0,94,0.00,,,0.00,,2013-05-19 07:11:00,
2013-05-19 02:21:00,70.0,68.0,29.80,ENE,67,0.0,2.0,95,0.00,,,0.00,,2013-05-19 07:21:00,
2013-05-19 02:32:00,70.0,68.0,29.80,NE,50,0.0,1.0,94,0.00,,,0.00,,2013-05-19 07:32:00,
2013-05-19 02:42:00,70.0,68.0,29.80,NE,50,0.0,1.0,94,0.00,,,0.00,,2013-05-19 07:42:00,
2013-05-19 02:52:00,70.0,68.0,29.80,NE,53,0.0,2.0,95,0.00,,,0.00,,2013-05-19 07:52:00,
2013-05-19 03:01:00,71.0,69.0,29.79,NE,44,0.0,1.0,94,0.00,,,0.00,,2013-05-19 08:01:00,
2013-05-19 03:12:00,71.0,69.0,29.79,NE,44,0.0,1.0,94,0.00,,,0.00,,2013-05-19 08:12:00,
2013-05-19 03:22:00,71.0,69.0,29.78,SE,130,0.0,1.0,93,0.00,,,0.00,,2013-05-19 08:22:00,
2013-05-19 03:32:00,71.0,69.0,29.77,WSW,248,0.0,2.0,94,0.00,,,0.00,,2013-05-19 08:32:00,
2013-05-19 03:42:00,71.0,69.0,29.77,WSW,248,0.0,2.0,94,0.00,,,0.00,,2013-05-19 08:42:00,
2013-05-19 03:52:00,71.0,69.0,29.75,WSW,248,0.0,0.0,93,0.00,,,0.00,,2013-05-19 08:52:00,
2013-05-19 04:02:00,71.0,69.0,29.76,SSW,207,0.0,2.0,93,0.00,,,0.00,,2013-05-19 09:02:00,
2013-05-19 04:11:00,71.0,69.0,29.76,SSW,207,0.0,2.0,93,0.00,,,0.00,,2013-05-19 09:11:00,
2013-05-19 04:21:00,71.0,69.0,29.75,SSW,205,0.0,1.0,93,0.00,,,0.00,,2013-05-19 09:21:00,
2013-05-19 04:32:00,69.0,67.0,29.75,SSW,205,0.0,0.0,93,0.00,,,0.00,,2013-05-19 09:32:00,
2013-05-19 04:43:00,69.0,67.0,29.75,SSW,205,0.0,0.0,93,0.00,,,0.00,,2013-05-19 09:43:00,
2013-05-19 04:53:00,69.0,68.0,29.75,SSW,205,0.0,0.0,95,0.00,,,0.00,,2013-05-19 09:53:00,
2013-05-19 05:02:00,68.0,67.0,29.75,SSW,199,0.0,0.0,95,0.00,,,0.00,,2013-05-19 10:02:00,
2013-05-19 05:12:00,68.0,67.0,29.75,SSW,199,0.0,0.0,95,0.00,,,0.00,,2013-05-19 10:12:00,
2013-05-19 05:23:00,69.0,68.0,29.75,NE,44,0.0,2.0,98,0.00,,,0.00,,2013-05-19 10:23:00,
2013-05-19 05:33:00,71.0,69.0,29.74,West,279,1.0,4.0,94,0.00,,,0.00,,2013-05-19 10:33:00,
2013-05-19 05:42:00,71.0,69.0,29.74,West,279,1.0,4.0,94,0.00,,,0.00,,2013-05-19 10:42:00,
2013-05-19 05:53:00,72.0,69.0,29.74,ENE,57,0.0,4.0,91,0.00,,,0.00,,2013-05-19 10:53:00,
2013-05-19 06:02:00,72.0,69.0,29.74,North,360,0.0,4.0,90,0.00,,,0.00,,2013-05-19 11:02:00,
2013-05-19 06:12:00,72.0,69.0,29.74,North,360,0.0,4.0,90,0.00,,,0.00,,2013-05-19 11:12:00,
2013-05-19 06:21:00,72.0,69.0,29.75,NNE,19,0.0,4.0,90,0.00,,,0.00,,2013-05-19 11:21:00,
2013-05-19 06:32:00,72.0,69.0,29.75,NE,40,0.0,2.0,89,0.00,,,0.00,,2013-05-19 11:32:00,
2013-05-19 06:42:00,72.0,69.0,29.75,NE,40,0.0,2.0,89,0.00,,,0.00,,2013-05-19 11:42:00,
2013-05-19 06:52:00,72.0,69.0,29.75,NE,53,0.0,4.0,89,0.00,,,0.00,,2013-05-19 11:52:00,
2013-05-19 07:01:00,73.0,69.0,29.75,NNE,33,1.0,3.0,87,0.00,,,0.00,,2013-05-19 12:01:00,
2013-05-19 07:11:00,73.0,69.0,29.75,NNE,33,1.0,3.0,87,0.00,,,0.00,,2013-05-19 12:11:00,
2013-05-19 07:22:00,73.0,69.0,29.76,NE,38,1.0,5.0,87,0.00,,,0.00,,2013-05-19 12:22:00,
2013-05-19 07:32:00,72.0,67.0,29.76,NNE,13,0.0,7.0,85,0.00,,,0.00,,2013-05-19 12:32:00,
2013-05-19 07:42:00,72.0,67.0,29.76,NNE,13,0.0,7.0,85,0.00,,,0.00,,2013-05-19 12:42:00,
2013-05-19 07:52:00,73.0,68.0,29.76,NNE,26,1.0,7.0,84,0.00,,,0.00,,2013-05-19 12:52:00,
2013-05-19 08:01:00,73.0,68.0,29.77,ENE,67,0.0,5.0,84,0.00,,,0.00,,2013-05-19 13:01:00,
2013-05-19 08:11:00,73.0,68.0,29.77,ENE,67,0.0,5.0,84,0.00,,,0.00,,2013-05-19 13:11:00,
2013-05-19 08:21:00,73.0,68.0,29.78,NW,306,0.0,2.0,83,0.00,,,0.00,,2013-05-19 13:21:00,
2013-05-19 08:32:00,74.0,67.0,29.78,NW,304,0.0,4.0,78,0.00,,,0.00,,2013-05-19 13:32:00,
2013-05-19 08:42:00,74.0,67.0,29.78,NW,304,0.0,4.0,78,0.00,,,0.00,,2013-05-19 13:42:00,
2013-05-19 08:52:00,75.0,67.0,29.78,NNE,22,1.0,5.0,76,0.00,,,0.00,,2013-05-19 13:52:00,
2013-05-19 09:02:00,76.0,67.0,29.77,NE,56,0.0,5.0,75,0.00,,,0.00,,2013-05-19 14:02:00,
2013-05-19 09:11:00,76.0,67.0,29.77,NE,56,0.0,5.0,75,0.00,,,0.00,,2013-05-19 14:11:00,
2013-05-19 09:21:00,77.0,67.0,29.76,NW,326,2.0,8.0,72,0.00,,,0.00,,2013-05-19 14:21:00,
2013-05-19 09:32:00,77.0,66.0,29.75,ENE,61,3.0,7.0,69,0.00,,,0.00,,2013-05-19 14:32:00,
2013-05-19 09:42:00,77.0,66.0,29.75,ENE,61,3.0,7.0,69,0.00,,,0.00,,2013-05-19 14:42:00,
2013-05-19 09:52:00,77.0,66.0,29.75,ENE,61,3.0,7.0,69,0.00,,,0.00,,2013-05-19 14:52:00,
2013-05-19 10:01:00,78.0,66.0,29.74,ENE,58,1.0,6.0,67,0.00,,,0.00,,2013-05-19 15:01:00,
2013-05-19 10:11:00,78.0,66.0,29.74,ENE,58,1.0,6.0,67,0.00,,,0.00,,2013-05-19 15:11:00,
2013-05-19 10:21:00,79.0,65.0,29.74,West,260,2.0,8.0,63,0.00,,,0.00,,2013-05-19 15:21:00,
2013-05-19 10:33:00,79.0,65.0,29.74,West,260,2.0,8.0,63,0.00,,,0.00,,2013-05-19 15:33:00,
2013-05-19 10:43:00,79.0,65.0,29.74,West,260,2.0,8.0,63,0.00,,,0.00,,2013-05-19 15:43:00,
2013-05-19 10:53:00,79.0,64.0,29.73,NNE,26,1.0,7.0,60,0.00,,,0.00,,2013-05-19 15:53:00,
2013-05-19 11:03:00,80.0,64.0,29.73,North,11,3.0,8.0,58,0.00,,,0.00,,2013-05-19 16:03:00,
2013-05-19 11:12:00,80.0,64.0,29.73,North,11,3.0,8.0,58,0.00,,,0.00,,2013-05-19 16:12:00,
2013-05-19 11:23:00,80.0,63.0,29.72,NNE,28,3.0,7.0,57,0.00,,,0.00,,2013-05-19 16:23:00,
2013-05-19 11:32:00,81.0,63.0,29.72,NNE,29,3.0,8.0,55,0.00,,,0.00,,2013-05-19 16:32:00,
2013-05-19 11:42:00,81.0,63.0,29.72,NNE,29,3.0,8.0,55,0.00,,,0.00,,2013-05-19 16:42:00,
2013-05-19 11:52:00,82.0,64.0,29.72,NE,50,1.0,7.0,55,0.00,,,0.00,,2013-05-19 16:52:00,
2013-05-19 12:02:00,82.0,63.0,29.72,SSW,204,3.0,8.0,53,0.00,,,0.00,,2013-05-19 17:02:00,
2013-05-19 12:12:00,82.0,63.0,29.72,SSW,204,3.0,8.0,53,0.00,,,0.00,,2013-05-19 17:12:00,
2013-05-19 12:22:00,83.0,65.0,29.71,NE,44,1.0,3.0,54,0.00,,,0.00,,2013-05-19 17:22:00,
2013-05-19 12:32:00,83.0,65.0,29.71,WSW,254,1.0,10.0,54,0.00,,,0.00,,2013-05-19 17:32:00,
2013-05-19 12:43:00,83.0,65.0,29.71,WSW,254,1.0,10.0,54,0.00,,,0.00,,2013-05-19 17:43:00,
2013-05-19 12:52:00,83.0,65.0,29.71,NE,54,1.0,7.0,54,0.00,,,0.00,,2013-05-19 17:52:00,
2013-05-19 13:02:00,83.0,65.0,29.71,South,171,2.0,8.0,54,0.00,,,0.00,,2013-05-19 18:02:00,
2013-05-19 13:12:00,83.0,65.0,29.71,South,171,2.0,8.0,54,0.00,,,0.00,,2013-05-19 18:12:00,
2013-05-19 13:22:00,83.0,64.0,29.70,WNW,296,2.0,8.0,52,0.00,,,0.00,,2013-05-19 18:22:00,
2013-05-19 13:32:00,84.0,66.0,29.70,North,360,1.0,7.0,54,0.00,,,0.00,,2013-05-19 18:32:00,
2013-05-19 13:42:00,84.0,66.0,29.70,North,360,1.0,7.0,54,0.00,,,0.00,,2013-05-19 18:42:00,
2013-05-19 13:53:00,84.0,63.0,29.70,WNW,301,2.0,14.0,50,0.00,,,0.00,,2013-05-19 18:53:00,
2013-05-19 14:01:00,85.0,66.0,29.69,NE,54,0.0,4.0,53,0.00,,,0.00,,2013-05-19 19:01:00,
2013-05-19 14:11:00,85.0,66.0,29.69,NE,54,0.0,4.0,53,0.00,,,0.00,,2013-05-19 19:11:00,
2013-05-19 14:22:00,85.0,65.0,29.68,North,360,1.0,8.0,51,0.00,,,0.00,,2013-05-19 19:22:00,
2013-05-19 14:32:00,85.0,65.0,29.68,North,360,1.0,8.0,51,0.00,,,0.00,,2013-05-19 19:32:00,
2013-05-19 14:42:00,85.0,65.0,29.68,North,360,1.0,8.0,51,0.00,,,0.00,,2013-05-19 19:42:00,
2013-05-19 14:52:00,85.0,64.0,29.66,North,355,1.0,5.0,50,0.00,,,0.00,,2013-05-19 19:52:00,
2013-05-19 15:02:00,85.0,64.0,29.66,North,355,1.0,5.0,50,0.00,,,0.00,,2013-05-19 20:02:00,
2013-05-19 15:11:00,85.0,64.0,29.66,North,355,1.0,5.0,50,0.00,,,0.00,,2013-05-19 20:11:00,
2013-05-19 15:21:00,86.0,67.0,29.66,East,87,1.0,11.0,53,0.00,,,0.00,,2013-05-19 20:21:00,
2013-05-19 15:32:00,86.0,66.0,29.65,NE,40,4.0,8.0,52,0.00,,,0.00,,2013-05-19 20:32:00,
2013-05-19 15:42:00,86.0,66.0,29.65,NE,40,4.0,8.0,52,0.00,,,0.00,,2013-05-19 20:42:00,
2013-05-19 15:52:00,86.0,64.0,29.65,North,355,3.0,10.0,48,0.00,,,0.00,,2013-05-19 20:52:00,
2013-05-19 16:02:00,86.0,64.0,29.64,North,5,3.0,9.0,48,0.00,,,0.00,,2013-05-19 21:02:00,
2013-05-19 16:11:00,86.0,64.0,29.64,North,5,3.0,9.0,48,0.00,,,0.00,,2013-05-19 21:11:00,
2013-05-19 16:22:00,87.0,64.0,29.64,NE,47,1.0,12.0,47,0.00,,,0.00,,2013-05-19 21:22:00,
2013-05-19 16:32:00,86.0,64.0,29.63,NE,34,4.0,11.0,48,0.00,,,0.00,,2013-05-19 21:32:00,
2013-05-19 16:43:00,86.0,64.0,29.63,NE,34,4.0,11.0,48,0.00,,,0.00,,2013-05-19 21:43:00,
2013-05-19 16:53:00,86.0,64.0,29.62,NE,51,4.0,11.0,48,0.00,,,0.00,,2013-05-19 21:53:00,
2013-05-19 17:03:00,85.0,64.0,29.62,ENE,70,5.0,10.0,49,0.00,,,0.00,,2013-05-19 22:03:00,
2013-05-19 17:12:00,85.0,64.0,29.62,ENE,70,5.0,10.0,49,0.00,,,0.00,,2013-05-19 22:12:00,
2013-05-19 17:23:00,85.0,64.0,29.61,NW,325,5.0,14.0,49,0.00,,,0.00,,2013-05-19 22:23:00,
2013-05-19 17:33:00,84.0,63.0,29.60,NE,47,5.0,10.0,50,0.00,,,0.00,,2013-05-19 22:33:00,
2013-05-19 17:42:00,84.0,63.0,29.60,NE,47,5.0,10.0,50,0.00,,,0.00,,2013-05-19 22:42:00,
2013-05-19 17:52:00,84.0,64.0,29.60,ENE,61,3.0,11.0,52,0.00,,,0.00,,2013-05-19 22:52:00,
2013-05-19 18:02:00,84.0,64.0,29.61,ENE,74,3.0,8.0,51,0.00,,,0.00,,2013-05-19 23:02:00,
2013-05-19 18:12:00,84.0,64.0,29.61,ENE,74,3.0,8.0,51,0.00,,,0.00,,2013-05-19 23:12:00,
2013-05-19 18:22:00,83.0,65.0,29.61,NNE,31,2.0,8.0,54,0.00,,,0.00,,2013-05-19 23:22:00,
2013-05-19 18:32:00,83.0,65.0,29.60,West,263,3.0,9.0,54,0.00,,,0.00,,2013-05-19 23:32:00,
2013-05-19 18:42:00,83.0,65.0,29.60,West,263,3.0,9.0,54,0.00,,,0.00,,2013-05-19 23:42:00,
2013-05-19 18:52:00,82.0,64.0,29.61,ESE,121,2.0,8.0,54,0.00,,,0.00,,2013-05-19 23:52:00,
2013-05-19 19:02:00,81.0,64.0,29.62,North,9,1.0,6.0,57,0.00,,,0.00,,2013-05-20 00:02:00,
2013-05-19 19:11:00,81.0,64.0,29.62,North,9,1.0,6.0,57,0.00,,,0.00,,2013-05-20 00:11:00,
2013-05-19 19:21:00,81.0,64.0,29.63,West,259,0.0,3.0,57,0.00,,,0.00,,2013-05-20 00:21:00,
2013-05-19 19:32:00,81.0,65.0,29.63,NE,42,0.0,5.0,59,0.00,,,0.00,,2013-05-20 00:32:00,
2013-05-19 19:42:00,81.0,65.0,29.63,NE,42,0.0,5.0,59,0.00,,,0.00,,2013-05-20 00:42:00,
2013-05-19 19:52:00,80.0,65.0,29.65,NE,54,1.0,5.0,60,0.00,,,0.00,,2013-05-20 00:52:00,
2013-05-19 20:01:00,80.0,65.0,29.65,NW,317,1.0,8.0,60,0.00,,,0.00,,2013-05-20 01:01:00,
2013-05-19 20:11:00,80.0,65.0,29.65,NW,317,1.0,8.0,60,0.00,,,0.00,,2013-05-20 01:11:00,
2013-05-19 20:21:00,80.0,65.0,29.66,NNW,327,0.0,5.0,61,0.00,,,0.00,,2013-05-20 01:21:00,
2013-05-19 20:31:00,79.0,65.0,29.65,NE,36,0.0,5.0,62,0.00,,,0.00,,2013-05-20 01:31:00,
2013-05-19 20:42:00,79.0,65.0,29.65,NE,36,0.0,5.0,62,0.00,,,0.00,,2013-05-20 01:42:00,
2013-05-19 20:52:00,77.0,67.0,29.66,NE,46,0.0,2.0,71,0.00,,,0.00,,2013-05-20 01:52:00,
2013-05-19 21:02:00,76.0,66.0,29.66,ENE,57,1.0,5.0,71,0.01,,,0.01,,2013-05-20 02:02:00,
2013-05-19 21:11:00,76.0,66.0,29.66,ENE,57,1.0,5.0,71,0.01,,,0.01,,2013-05-20 02:11:00,
2013-05-19 21:21:00,77.0,66.0,29.66,NE,46,1.0,5.0,70,0.01,,,0.01,,2013-05-20 02:21:00,
2013-05-19 21:31:00,77.0,67.0,29.65,NE,54,2.0,5.0,71,0.01,,,0.01,,2013-05-20 02:31:00,
2013-05-19 21:42:00,77.0,67.0,29.65,NE,54,2.0,5.0,71,0.01,,,0.01,,2013-05-20 02:42:00,
2013-05-19 21:51:00,77.0,66.0,29.65,NNE,28,2.0,7.0,70,0.00,,,0.01,,2013-05-20 02:51:00,
2013-05-19 22:01:00,77.0,66.0,29.65,ENE,62,3.0,6.0,69,0.00,,,0.01,,2013-05-20 03:01:00,
2013-05-19 22:11:00,77.0,66.0,29.65,ENE,62,3.0,6.0,69,0.00,,,0.01,,2013-05-20 03:11:00,
2013-05-19 22:21:00,78.0,67.0,29.64,NE,53,3.0,12.0,69,0.00,,,0.01,,2013-05-20 03:21:00,
2013-05-19 22:33:00,78.0,67.0,29.65,NE,46,3.0,8.0,68,0.00,,,0.01,,2013-05-20 03:33:00,
2013-05-19 22:43:00,78.0,67.0,29.65,NE,46,3.0,8.0,68,0.00,,,0.01,,2013-05-20 03:43:00,
2013-05-19 22:52:00,78.0,67.0,29.64,ENE,60,4.0,9.0,69,0.01,,,0.02,,2013-05-20 03:52:00,
2013-05-19 23:03:00,78.0,67.0,29.65,NE,42,1.0,9.0,70,0.01,,,0.02,,2013-05-20 04:03:00,
2013-05-19 23:13:00,78.0,67.0,29.65,NE,42,1.0,9.0,70,0.01,,,0.02,,2013-05-20 04:13:00,
2013-05-19 23:23:00,77.0,67.0,29.67,WNW,286,0.0,5.0,71,0.01,,,0.02,,2013-05-20 04:23:00,
2013-05-19 23:33:00,77.0,67.0,29.67,East,80,1.0,7.0,71,0.01,,,0.02,,2013-05-20 04:33:00,
2013-05-19 23:42:00,77.0,67.0,29.67,East,80,1.0,7.0,71,0.01,,,0.02,,2013-05-20 04:42:00,
2013-05-19 23:52:00,77.0,67.0,29.66,NE,49,2.0,7.0,72,0.00,,,0.02,,2013-05-20 04:52:00,